• In Belgium
  • List of Countries
  • For 7 days
  • Water Temperature
  • Satellite Maps
  • Weather Map
  • Weather Widgets
  • user-avatar
    Login

    Hourly Weather Ardahan

    Today, 23 April, Monday

    Time Temperature Precipitation Wind Pressure Humidity
    00:00 0°C° 0 mm 1 mps 604 mmHg 91%
    01:00 0°C° 0 mm 1 mps 604 mmHg 88%
    02:00 0°C° 0 mm 1 mps 604 mmHg 84%
    03:00 0°C° 0 mm 1 mps 603 mmHg 79%
    04:00 0°C° 0 mm 1 mps 603 mmHg 76%
    05:00 0°C° 0 mm 1 mps 603 mmHg 72%
    06:00 0°C° 0 mm 1 mps 603 mmHg 69%
    07:00 +1°C° 0 mm 2 mps 604 mmHg 64%
    08:00 +2°C° 0 mm 3 mps 605 mmHg 58%
    09:00 +4°C° 0 mm 3 mps 605 mmHg 53%
    10:00 +5°C° 0 mm 4 mps 605 mmHg 51%
    11:00 +6°C° 0 mm 4 mps 606 mmHg 50%
    12:00 +7°C° 0 mm 4 mps 606 mmHg 49%
    13:00 +7°C° 0 mm 4 mps 606 mmHg 49%
    14:00 +7°C° 0 mm 5 mps 606 mmHg 50%
    15:00 +7°C° 0 mm 5 mps 606 mmHg 50%
    16:00 +6°C° 0 mm 4 mps 606 mmHg 53%
    17:00 +5°C° 0 mm 4 mps 606 mmHg 55%
    18:00 +4°C° 0 mm 3 mps 606 mmHg 58%
    19:00 +3°C° 0 mm 3 mps 605 mmHg 65%
    20:00 +2°C° 0 mm 2 mps 605 mmHg 72%
    21:00 -1°C° 0 mm 2 mps 605 mmHg 78%
    22:00 -1°C° 0 mm 2 mps 605 mmHg 77%
    23:00 -1°C° 0 mm 2 mps 605 mmHg 76%

    Tomorrow, 24 April, Tuesday

    Time Temperature Precipitation Wind Pressure Humidity
    00:00 +1°C° 0 mm 1 mps 605 mmHg 74%
    01:00 +1°C° 0 mm 1 mps 605 mmHg 72%
    02:00 +1°C° 0 mm 1 mps 605 mmHg 70%
    03:00 +1°C° 0 mm 1 mps 605 mmHg 68%
    04:00 +1°C° 0 mm 1 mps 606 mmHg 66%
    05:00 +1°C° 0 mm 1 mps 606 mmHg 63%
    06:00 +1°C° 0 mm 1 mps 606 mmHg 61%
    07:00 +2°C° 0 mm 2 mps 607 mmHg 59%
    08:00 +5°C° 0 mm 2 mps 608 mmHg 57%
    09:00 +7°C° 0 mm 3 mps 609 mmHg 55%
    10:00 +8°C° 0 mm 3 mps 609 mmHg 52%
    11:00 +8°C° 0 mm 4 mps 610 mmHg 49%
    12:00 +10°C° 0 mm 4 mps 610 mmHg 46%
    13:00 +11°C° 0 mm 4 mps 610 mmHg 45%
    14:00 +11°C° 0 mm 4 mps 610 mmHg 44%
    15:00 +11°C° 0 mm 4 mps 610 mmHg 43%
    16:00 +10°C° 0 mm 3 mps 610 mmHg 47%
    17:00 +9°C° 0 mm 3 mps 610 mmHg 51%
    18:00 +8°C° 0 mm 2 mps 609 mmHg 54%
    19:00 +7°C° 0 mm 2 mps 609 mmHg 60%
    20:00 +6°C° 0 mm 1 mps 609 mmHg 65%
    21:00 +4°C° 0 mm 1 mps 608 mmHg 71%
    22:00 +4°C° 0 mm 1 mps 608 mmHg 70%
    23:00 +4°C° 0 mm 1 mps 609 mmHg 69%

    Day after tomorrow, 25 April, Wednesday

    Time Temperature Precipitation Wind Pressure Humidity
    00:00 +4°C° 0 mm 1 mps 609 mmHg 68%
    01:00 +3°C° 0 mm 1 mps 609 mmHg 68%
    02:00 +3°C° 0 mm 1 mps 608 mmHg 67%
    03:00 +3°C° 0 mm 1 mps 608 mmHg 67%
    04:00 +3°C° 0 mm 1 mps 608 mmHg 67%
    05:00 +4°C° 0 mm 1 mps 609 mmHg 68%
    06:00 +4°C° 0 mm 1 mps 609 mmHg 68%
    07:00 +6°C° 0 mm 1 mps 610 mmHg 60%
    08:00 +9°C° 0 mm 1 mps 611 mmHg 51%
    09:00 +12°C° 0 mm 2 mps 612 mmHg 42%
    10:00 +13°C° 0 mm 2 mps 612 mmHg 38%
    11:00 +14°C° 0 mm 2 mps 612 mmHg 34%
    12:00 +16°C° 0 mm 2 mps 612 mmHg 30%
    13:00 +16°C° 0 mm 2 mps 612 mmHg 30%
    14:00 +16°C° 0 mm 3 mps 612 mmHg 29%
    15:00 +17°C° 0 mm 3 mps 612 mmHg 29%
    16:00 +16°C° 0 mm 3 mps 611 mmHg 35%
    17:00 +14°C° 0 mm 2 mps 611 mmHg 41%
    18:00 +13°C° 0 mm 2 mps 611 mmHg 46%
    19:00 +10°C° 0 mm 2 mps 610 mmHg 52%
    20:00 +8°C° 0 mm 2 mps 610 mmHg 58%
    21:00 +7°C° 0 mm 1 mps 609 mmHg 64%
    22:00 +7°C° 0 mm 1 mps 609 mmHg 66%
    23:00 +7°C° 0 mm 1 mps 609 mmHg 68%

    26 April, Thursday

    Time Temperature Precipitation Wind Pressure Humidity
    00:00 +6°C° 0 mm 1 mps 609 mmHg 71%
    01:00 +6°C° 0 mm 1 mps 609 mmHg 73%
    02:00 +6°C° 0 mm 1 mps 609 mmHg 74%
    03:00 +6°C° 0 mm 1 mps 608 mmHg 76%
    04:00 +6°C° 0 mm 1 mps 609 mmHg 77%
    05:00 +6°C° 0 mm 1 mps 609 mmHg 77%
    06:00 +6°C° 0 mm 1 mps 609 mmHg 78%
    07:00 +8°C° 0 mm 2 mps 610 mmHg 67%
    08:00 +12°C° 0 mm 2 mps 611 mmHg 56%
    09:00 +14°C° 0 mm 2 mps 612 mmHg 46%
    10:00 +16°C° 0 mm 2 mps 612 mmHg 41%
    11:00 +17°C° 0 mm 2 mps 613 mmHg 37%
    12:00 +19°C° 0 mm 2 mps 613 mmHg 33%
    13:00 +19°C° 0 mm 2 mps 613 mmHg 32%
    14:00 +19°C° 0 mm 2 mps 612 mmHg 32%
    15:00 +19°C° 0 mm 2 mps 612 mmHg 31%
    16:00 +18°C° 0.1 mm 2 mps 611 mmHg 37%
    17:00 +17°C° 0.1 mm 2 mps 611 mmHg 43%
    18:00 +16°C° 0.1 mm 2 mps 611 mmHg 48%
    19:00 +14°C° 0 mm 2 mps 610 mmHg 52%
    20:00 +12°C° 0 mm 2 mps 610 mmHg 57%
    21:00 +11°C° 0 mm 1 mps 610 mmHg 61%
    22:00 +9°C° 0 mm 2 mps 610 mmHg 61%
    23:00 +8°C° 0 mm 2 mps 609 mmHg 61%

    27 April, Friday

    Time Temperature Precipitation Wind Pressure Humidity
    00:00 +8°C° 0 mm 2 mps 609 mmHg 61%
    01:00 +7°C° 0 mm 2 mps 609 mmHg 63%
    02:00 +7°C° 0 mm 2 mps 608 mmHg 65%
    03:00 +6°C° 0 mm 2 mps 608 mmHg 67%
    04:00 +6°C° 0 mm 2 mps 608 mmHg 70%
    05:00 +6°C° 0 mm 2 mps 608 mmHg 72%
    06:00 +6°C° 0 mm 2 mps 608 mmHg 75%
    07:00 +9°C° 0 mm 2 mps 609 mmHg 65%
    08:00 +13°C° 0 mm 2 mps 610 mmHg 56%
    09:00 +15°C° 0 mm 2 mps 611 mmHg 47%
    10:00 +17°C° 0 mm 2 mps 611 mmHg 43%
    11:00 +18°C° 0 mm 2 mps 611 mmHg 39%
    12:00 +19°C° 0 mm 3 mps 612 mmHg 36%
    13:00 +20°C° 0 mm 2 mps 611 mmHg 34%
    14:00 +20°C° 0 mm 2 mps 611 mmHg 33%
    15:00 +21°C° 0 mm 2 mps 610 mmHg 32%
    16:00 +19°C° 0.1 mm 2 mps 610 mmHg 39%
    17:00 +18°C° 0.1 mm 2 mps 610 mmHg 46%
    18:00 +17°C° 0.1 mm 2 mps 609 mmHg 52%
    19:00 +15°C° 0.2 mm 2 mps 609 mmHg 57%
    20:00 +14°C° 0.2 mm 2 mps 609 mmHg 61%
    21:00 +13°C° 0.2 mm 1 mps 609 mmHg 66%
    22:00 +12°C° 0 mm 1 mps 609 mmHg 68%
    23:00 +11°C° 0 mm 1 mps 609 mmHg 70%

    28 April, Saturday

    Time Temperature Precipitation Wind Pressure Humidity
    00:00 +11°C° 0 mm 1 mps 608 mmHg 72%
    01:00 +10°C° 0 mm 1 mps 608 mmHg 74%
    02:00 +10°C° 0 mm 1 mps 608 mmHg 76%
    03:00 +9°C° 0 mm 1 mps 607 mmHg 78%
    04:00 +9°C° 0 mm 1 mps 607 mmHg 79%
    05:00 +9°C° 0 mm 1 mps 607 mmHg 79%
    06:00 +9°C° 0 mm 1 mps 608 mmHg 80%
    07:00 +11°C° 0 mm 1 mps 608 mmHg 72%
    08:00 +13°C° 0 mm 1 mps 609 mmHg 64%
    09:00 +15°C° 0 mm 1 mps 610 mmHg 56%
    10:00 +16°C° 0.3 mm 2 mps 610 mmHg 54%
    11:00 +17°C° 0.3 mm 2 mps 610 mmHg 52%
    12:00 +18°C° 0.3 mm 2 mps 610 mmHg 50%
    13:00 +17°C° 1.2 mm 3 mps 610 mmHg 54%
    14:00 +16°C° 1.2 mm 3 mps 609 mmHg 58%
    15:00 +16°C° 1.2 mm 3 mps 609 mmHg 62%
    16:00 +14°C° 1.4 mm 3 mps 609 mmHg 68%
    17:00 +14°C° 1.4 mm 2 mps 609 mmHg 74%
    18:00 +13°C° 1.4 mm 2 mps 609 mmHg 80%
    19:00 +12°C° 0.5 mm 2 mps 609 mmHg 84%
    20:00 +10°C° 0.5 mm 2 mps 609 mmHg 87%
    21:00 +11°C° 0.5 mm 1 mps 609 mmHg 90%
    22:00 +10°C° 0.2 mm 1 mps 609 mmHg 91%
    23:00 +10°C° 0.2 mm 1 mps 608 mmHg 92%
    Show more